Weather in Nerchinsk

Russia / Zabaykalsky Krai     51°57′34″N   116°35′07″E
temp.,
°C
wind,
m/s
gust,
m/s
humid.,
%
clouds,
%
prec.,
mm/h
press.,
hPa
HPBL,
m
19 may, wed
wed1900:00+6nnw1126100 0.0 100411
03:00+5sse1127100 0.0 100410
06:00+6e1130100 0.0 100212
09:00+8wsw2443100 0.1 1002750
12:00+9ssw355997 0.4 10001166
15:00+13wsw474797 0.4 9981816
18:00+16wnw682653 0.0 9972666
21:00+11w224113 0.0 99810
20 may, thu
thu2000:00+7wnw12485 0.0 100111
03:00+5w11425 0.0 100310
06:00+4sse0040100 0.0 100410
09:00+9ene1129100 0.0 1004297
12:00+13se1327100 0.0 10021116
15:00+10e2373100 0.6 1002350
18:00+8ne688280 0.6 1002433
21:00+7ne61087100 0.6 1002331
21 may, fri
fri2100:00+6ne61190100 0.0 1003328
03:00+5ne61093100 0.0 1000287
06:00+5ne81293100 0.1 997336
09:00+9ene8979100 0.1 996527
12:00+13ne656496 0.1 995835
15:00+13ne996286 0.1 995806
18:00+8nne8979100 0.0 999705
21:00+5nne6884100 0.0 1003734
22 may, sat
sat2200:00+4nne4783100 0.0 1004741
03:00+4nne5681100 0.0 1004699
06:00+3nne5884100 0.1 1004612
09:00+3n4587100 0.7 1006535
12:00+4n4586100 1.7 1006683
15:00+8n4562100 1.9 10051371
18:00+6nnw5681100 0.4 1006838
21:00+5nnw5881100 0.7 1008635
23 may, sun
sun2300:00+4nw488361 0.0 1008534
03:00+1w229157 0.0 100944
06:00+2wsw228894 0.0 101073
09:00+7nnw346180 0.0 1010952
12:00+11nnw5638100 0.1 10092330
15:00+13n4531100 0.1 10082390
18:00+13n5532100 0.0 10092350
21:00+8n2244100 0.0 101015